C/2017 M5 ( TOTAS )

Japanese version
Home page
Updated on September 17, 2019

---------------------------------------------------------------------

* Profile

Discovery Date June 23, 2017
Magnitude 18.6 mag
Discoverer Teide Observatory Tenerife Asteroid Survey (TOTAS)

* Pictures

* Orbital Elements

Epoch 2018 June 11.0 TT = JDT 2458280.5
T 2018 June 2.97200 TT                                  Williams
q   5.9895731            (2000.0)            P               Q
z  -0.0006424      Peri.   92.66077     +0.60571843     +0.77903519
 +/-0.0000009      Node   216.26263     -0.79432605     +0.58017914
e   1.0038478      Incl.   15.88486     -0.04638218     +0.23768959
From 268 observations 2016 May 30-2019 Aug. 7, mean residual 0".5.

* Magnitudes Graph

        m1 = -4.5 + 5 log d + 24 log r

---------------------------------------------------------------------

The orbital elements are published on M.P.E.C. 2019-Q135.
The magnitudes graphs are made with Comet for Windows.

---------------------------------------------------------------------

Copyright(C) Seiichi Yoshida (comet@aerith.net). All rights reserved.